Regional Weather Roundup
Issued by NWS

Home | Current Version | Previous Version | Text Only | Print | Product List | Glossary Off
Versions: 1 2 3 4 5 6 7 8 9 10 11 12 13 14 15 16 17 18 19 20 21 22 23 24 25 26 27 28 29 30 31 32 33 34 35 36 37 38 39 40 41 42 43 44 45 46 47 48 49 50

000
ASUS43 KFSD 012202
RWRSD

WEATHER ROUNDUP FOR SOUTH DAKOTA
NATIONAL WEATHER SERVICE SIOUX FALLS SD
400 PM CST SUN FEB 01 2015

NOTE: "FAIR" INDICATES FEW OR NO CLOUDS BELOW 12,000 FEET WITH NO
SIGNIFICANT WEATHER AND/OR OBSTRUCTIONS TO VISIBILITY.


SDZ001>005-009-010-012>017-012300-
NORTHWEST AND NORTH CENTRAL SOUTH DAKOTA

CITY           SKY/WX    TMP DP  RH WIND       PRES   REMARKS
BUFFALO          N/A     14   5  67 SW8       30.16F WCI   3
FAITH            N/A      9  -1  64 NW8       30.30F WCI  -3
MOBRIDGE       SUNNY      7 -11  43 N6        30.36F WCI  -3
$$

SDZ012>016-024>037-041>051-057-063-072>074-012300-
SOUTHWEST AND SOUTH CENTRAL SOUTH DAKOTA

CITY           SKY/WX    TMP DP  RH WIND       PRES   REMARKS
RAPID CTY ARPT MOSUNNY   13   7  77 NE5       30.26F WCI   5
PIERRE         SUNNY      6  -6  57 NW12      30.38F WCI  -9
CUSTER         SUNNY     17   4  56 SW9G17    30.05F WCI   6
ELLSWORTH AFB  MOSUNNY   14   6  71 CALM      30.25F
PHILIP         SUNNY     12   0  58 NW12      30.35F WCI  -2
PINE RIDGE     MOSUNNY   12   3  67 NW6       30.27F WCI   3
WINNER         FAIR       5  -3  69 NW17      30.36S WCI -14
$$

SDZ004>011-016>023-039-040-012300-
NORTHEAST SOUTH DAKOTA

CITY           SKY/WX    TMP DP  RH WIND       PRES   REMARKS
ABERDEEN       SUNNY      7  -8  50 N14       30.40F WCI -10
WATERTOWN      MOSUNNY    7  -2  66 N16       30.28S WCI -11
SISSETON         N/A      7  -9  48 N18       30.37S WCI -12
$$

SDZ017-020-022-023-036>040-048>070-012300-
SOUTHEAST SOUTH DAKOTA

CITY           SKY/WX    TMP DP  RH WIND       PRES   REMARKS
SIOUX FALLS    MOSUNNY    9   1  70 N17       30.26S WCI  -9
HURON          MOSUNNY    5  -6  60 N16       30.38F WCI -14
MITCHELL       MOSUNNY    5  -3  69 N22       30.37S WCI -16
YANKTON        MOSUNNY    5  -2  72 NW24      30.32S WCI -17
$$

ABBREVIATIONS USED IN REMARKS
   TC - TEMPERATURE IN CELSIUS
  WCI - WIND CHILL INDEX
   HX - HEAT INDEX
  VSB - VISIBILITY




USA.gov is the U.S. government's official web portal to all federal, state and local government web resources and services.